• In Belarus
  • List of Countries
  • For 7 days
  • Water Temperature
  • Satellite Maps
  • Weather Map
  • Weather Widgets
  • user-avatar
    Login

    Hourly Weather Idzhewan

    Today, 17 July, Wednesday

    Time Temperature Precipitation Wind Pressure Humidity
    00:00 +20°C° 0.1 mm 1 mps 688 mmHg 76%
    01:00 +20°C° 0 mm 1 mps 688 mmHg 77%
    02:00 +20°C° 0 mm 1 mps 688 mmHg 78%
    03:00 +20°C° 0 mm 1 mps 688 mmHg 80%
    04:00 +20°C° 0 mm 1 mps 688 mmHg 80%
    05:00 +21°C° 0 mm 1 mps 688 mmHg 79%
    06:00 +22°C° 0 mm 1 mps 689 mmHg 78%
    07:00 +23°C° 0 mm 1 mps 689 mmHg 73%
    08:00 +25°C° 0 mm 2 mps 689 mmHg 68%
    09:00 +26°C° 0 mm 2 mps 688 mmHg 63%
    10:00 +27°C° 0 mm 2 mps 689 mmHg 62%
    11:00 +28°C° 0 mm 2 mps 689 mmHg 61%
    12:00 +29°C° 0 mm 2 mps 689 mmHg 60%
    13:00 +29°C° 0.1 mm 2 mps 688 mmHg 59%
    14:00 +30°C° 0.1 mm 3 mps 688 mmHg 59%
    15:00 +30°C° 0 mm 3 mps 688 mmHg 58%
    16:00 +29°C° 0.1 mm 3 mps 688 mmHg 62%
    17:00 +28°C° 0.1 mm 2 mps 688 mmHg 66%
    18:00 +28°C° 0.1 mm 2 mps 688 mmHg 71%
    19:00 +26°C° 0.2 mm 2 mps 688 mmHg 76%
    20:00 +24°C° 0.2 mm 1 mps 688 mmHg 81%
    21:00 +23°C° 0.2 mm 1 mps 688 mmHg 86%
    22:00 +22°C° 0 mm 1 mps 688 mmHg 86%
    23:00 +22°C° 0 mm 1 mps 688 mmHg 87%

    Tomorrow, 18 July, Thursday

    Time Temperature Precipitation Wind Pressure Humidity
    00:00 +22°C° 0 mm 1 mps 688 mmHg 88%
    01:00 +21°C° 0 mm 1 mps 688 mmHg 89%
    02:00 +21°C° 0 mm 1 mps 688 mmHg 89%
    03:00 +21°C° 0 mm 1 mps 688 mmHg 90%
    04:00 +21°C° 0 mm 1 mps 689 mmHg 89%
    05:00 +22°C° 0 mm 1 mps 689 mmHg 88%
    06:00 +22°C° 0 mm 1 mps 689 mmHg 86%
    07:00 +24°C° 0 mm 1 mps 689 mmHg 81%
    08:00 +25°C° 0 mm 1 mps 689 mmHg 76%
    09:00 +27°C° 0 mm 2 mps 689 mmHg 71%
    10:00 +27°C° 0 mm 2 mps 689 mmHg 69%
    11:00 +28°C° 0 mm 2 mps 689 mmHg 66%
    12:00 +29°C° 0 mm 2 mps 689 mmHg 64%
    13:00 +30°C° 0.1 mm 2 mps 689 mmHg 62%
    14:00 +30°C° 0.1 mm 2 mps 689 mmHg 60%
    15:00 +31°C° 0.1 mm 2 mps 688 mmHg 59%
    16:00 +30°C° 0.1 mm 2 mps 688 mmHg 61%
    17:00 +30°C° 0.1 mm 2 mps 688 mmHg 64%
    18:00 +29°C° 0.1 mm 1 mps 688 mmHg 66%
    19:00 +28°C° 0 mm 1 mps 688 mmHg 70%
    20:00 +26°C° 0 mm 1 mps 689 mmHg 74%
    21:00 +24°C° 0 mm 1 mps 689 mmHg 78%
    22:00 +23°C° 0.1 mm 1 mps 689 mmHg 79%
    23:00 +23°C° 0.1 mm 1 mps 689 mmHg 80%

    Day after tomorrow, 19 July, Friday

    Time Temperature Precipitation Wind Pressure Humidity
    00:00 +23°C° 0.1 mm 1 mps 689 mmHg 81%
    01:00 +22°C° 0 mm 1 mps 689 mmHg 83%
    02:00 +22°C° 0 mm 1 mps 690 mmHg 84%
    03:00 +21°C° 0 mm 1 mps 690 mmHg 85%
    04:00 +22°C° 0 mm 1 mps 690 mmHg 85%
    05:00 +22°C° 0 mm 1 mps 690 mmHg 84%
    06:00 +23°C° 0 mm 1 mps 690 mmHg 84%
    07:00 +24°C° 0 mm 1 mps 691 mmHg 79%
    08:00 +26°C° 0 mm 2 mps 691 mmHg 74%
    09:00 +27°C° 0 mm 2 mps 691 mmHg 69%
    10:00 +28°C° 0 mm 2 mps 691 mmHg 67%
    11:00 +29°C° 0 mm 2 mps 691 mmHg 65%
    12:00 +29°C° 0 mm 2 mps 691 mmHg 63%
    13:00 +30°C° 0 mm 2 mps 691 mmHg 61%
    14:00 +30°C° 0 mm 2 mps 691 mmHg 59%
    15:00 +31°C° 0 mm 2 mps 691 mmHg 57%
    16:00 +30°C° 0 mm 2 mps 691 mmHg 59%
    17:00 +30°C° 0 mm 2 mps 691 mmHg 61%
    18:00 +30°C° 0 mm 2 mps 691 mmHg 63%
    19:00 +27°C° 0 mm 2 mps 691 mmHg 68%
    20:00 +25°C° 0 mm 1 mps 692 mmHg 74%
    21:00 +21°C° 0 mm 0 mps 692 mmHg 79%
    22:00 +23°C° 0 mm 1 mps 692 mmHg 80%
    23:00 +22°C° 0 mm 1 mps 693 mmHg 80%

    20 July, Saturday

    Time Temperature Precipitation Wind Pressure Humidity
    00:00 +22°C° 0 mm 1 mps 693 mmHg 80%
    01:00 +22°C° 0 mm 1 mps 693 mmHg 82%
    02:00 +21°C° 0 mm 1 mps 693 mmHg 83%
    03:00 +19°C° 0 mm 0 mps 693 mmHg 85%
    04:00 +20°C° 0 mm 0 mps 693 mmHg 84%
    05:00 +22°C° 0 mm 1 mps 693 mmHg 83%
    06:00 +23°C° 0 mm 1 mps 694 mmHg 82%
    07:00 +25°C° 0 mm 1 mps 694 mmHg 77%
    08:00 +26°C° 0 mm 1 mps 694 mmHg 72%
    09:00 +27°C° 0 mm 2 mps 694 mmHg 67%
    10:00 +28°C° 0 mm 2 mps 694 mmHg 65%
    11:00 +29°C° 0 mm 2 mps 694 mmHg 64%
    12:00 +29°C° 0 mm 2 mps 694 mmHg 62%
    13:00 +30°C° 0 mm 2 mps 694 mmHg 61%
    14:00 +31°C° 0 mm 2 mps 694 mmHg 60%
    15:00 +31°C° 0 mm 2 mps 694 mmHg 59%
    16:00 +31°C° 0 mm 2 mps 694 mmHg 60%
    17:00 +30°C° 0 mm 2 mps 694 mmHg 62%
    18:00 +30°C° 0 mm 2 mps 694 mmHg 63%
    19:00 +28°C° 0 mm 2 mps 694 mmHg 66%
    20:00 +27°C° 0 mm 1 mps 694 mmHg 68%
    21:00 +25°C° 0 mm 1 mps 695 mmHg 70%
    22:00 +24°C° 0 mm 1 mps 695 mmHg 71%
    23:00 +24°C° 0 mm 1 mps 695 mmHg 72%

    21 July, Sunday

    Time Temperature Precipitation Wind Pressure Humidity
    00:00 +23°C° 0 mm 1 mps 695 mmHg 72%
    01:00 +23°C° 0 mm 1 mps 695 mmHg 74%
    02:00 +22°C° 0 mm 1 mps 695 mmHg 76%
    03:00 +22°C° 0 mm 1 mps 694 mmHg 78%
    04:00 +22°C° 0 mm 1 mps 695 mmHg 78%
    05:00 +22°C° 0 mm 1 mps 695 mmHg 77%
    06:00 +23°C° 0 mm 1 mps 695 mmHg 77%
    07:00 +24°C° 0 mm 1 mps 695 mmHg 72%
    08:00 +25°C° 0 mm 2 mps 695 mmHg 67%
    09:00 +27°C° 0 mm 2 mps 695 mmHg 62%
    10:00 +28°C° 0 mm 2 mps 694 mmHg 60%
    11:00 +29°C° 0 mm 2 mps 694 mmHg 57%
    12:00 +30°C° 0 mm 2 mps 694 mmHg 55%
    13:00 +31°C° 0 mm 2 mps 694 mmHg 53%
    14:00 +31°C° 0 mm 3 mps 693 mmHg 52%
    15:00 +33°C° 0 mm 3 mps 693 mmHg 51%
    16:00 +31°C° 0 mm 3 mps 693 mmHg 53%
    17:00 +30°C° 0 mm 2 mps 692 mmHg 56%
    18:00 +30°C° 0 mm 2 mps 692 mmHg 59%
    19:00 +28°C° 0 mm 2 mps 692 mmHg 62%
    20:00 +26°C° 0 mm 2 mps 692 mmHg 65%
    21:00 +24°C° 0 mm 1 mps 692 mmHg 68%
    22:00 +24°C° 0 mm 1 mps 692 mmHg 68%
    23:00 +24°C° 0 mm 1 mps 692 mmHg 68%

    22 July, Monday

    Time Temperature Precipitation Wind Pressure Humidity
    00:00 +23°C° 0 mm 1 mps 692 mmHg 69%
    01:00 +23°C° 0 mm 1 mps 692 mmHg 70%
    02:00 +22°C° 0 mm 1 mps 692 mmHg 72%
    03:00 +22°C° 0 mm 1 mps 692 mmHg 74%
    04:00 +22°C° 0 mm 1 mps 692 mmHg 74%
    05:00 +23°C° 0 mm 1 mps 692 mmHg 74%
    06:00 +23°C° 0 mm 1 mps 692 mmHg 74%
    07:00 +25°C° 0 mm 1 mps 692 mmHg 69%
    08:00 +26°C° 0 mm 2 mps 692 mmHg 65%
    09:00 +28°C° 0 mm 2 mps 692 mmHg 60%
    10:00 +29°C° 0 mm 2 mps 692 mmHg 58%
    11:00 +30°C° 0 mm 2 mps 691 mmHg 56%
    12:00 +31°C° 0 mm 3 mps 691 mmHg 54%
    13:00 +31°C° 0 mm 3 mps 691 mmHg 53%
    14:00 +33°C° 0 mm 3 mps 690 mmHg 52%
    15:00 +33°C° 0 mm 3 mps 690 mmHg 51%
    16:00 +31°C° 0 mm 3 mps 690 mmHg 54%
    17:00 +31°C° 0 mm 2 mps 690 mmHg 56%
    18:00 +30°C° 0 mm 2 mps 690 mmHg 59%
    19:00 +28°C° 0 mm 2 mps 690 mmHg 63%
    20:00 +26°C° 0 mm 1 mps 690 mmHg 66%
    21:00 +24°C° 0 mm 1 mps 691 mmHg 70%
    22:00 +24°C° 0 mm 1 mps 691 mmHg 72%
    23:00 +23°C° 0 mm 1 mps 691 mmHg 74%
    Show more